Probability
0 0 0 0 0 0 0 0 0 0 0 1 2 3 3 3 3 2 1 0 0 0 0 0 0 0 0 0 0 0 0 0 0 0 0 0 0 0 0 1 2 2 2
0 0 0 0 0 0 0 0 0 0 0 0 1 3 3 3 3 3 1 1 0 0 0 0 0 0 0 0 0 0 0 0 0 0 0 0 0 0 0 0 1 1 1
0 0 0 0 0 0 0 0 0 0 0 0 1 2 3 3 3 3 3 2 1 0 0 0 0 0 0 0 0 0 0 0 0 0 0 0 0 0 0 0 0 0 0
0 0 0 0 0 0 0 0 0 0 0 0 0 1 3 3 3 3 3 3 1 0 0 0 0 0 1 1 0 0 0 0 0 0 0 0 0 0 0 0 0 0 0
0 0 0 0 0 0 0 0 0 0 0 0 0 1 3 3 3 3 3 2 1 0 0 0 0 0 1 1 0 0 0 0 0 0 0 0 0 0 0 0 0 0 0
0 0 0 0 0 0 0 0 0 0 0 0 0 1 2 2 2 2 2 1 1 0 0 0 0 0 1 1 0 0 0 0 0 0 0 0 0 0 0 0 0 0 0
0 0 0 0 0 0 0 0 0 0 0 0 0 1 1 1 1 1 1 0 1 1 0 0 0 0 0 0 0 0 0 0 0 0 0 0 0 0 0 0 0 0 0
0 0 0 0 0 0 0 0 0 0 0 0 0 0 0 0 0 1 1 1 1 1 0 0 0 0 0 0 0 0 0 0 0 0 0 0 0 0 0 0 0 0 0
0 0 0 0 0 0 0 0 0 0 0 0 0 0 0 0 1 2 2 2 1 1 0 0 0 0 0 0 0 0 0 0 0 0 0 0 0 0 0 0 0 0 0
0 0 0 0 0 0 0 0 0 0 0 0 0 0 0 0 1 3 3 3 1 0 0 0 0 0 0 0 0 0 0 0 0 0 0 0 0 0 0 0 0 0 0
0 0 0 0 0 0 0 0 0 0 0 0 0 0 0 1 2 3 3 3 2 0 0 0 0 0 0 0 0 0 0 0 0 0 0 0 0 0 0 0 0 0 0
0 0 0 0 0 0 0 0 0 0 0 0 0 0 0 1 3 3 3 2 1 0 0 0 0 0 0 0 0 0 0 0 0 0 0 0 0 0 0 0 0 0 0
0 0 0 0 0 0 0 0 0 0 0 0 0 0 0 1 2 2 1 1 0 0 0 0 0 0 0 0 0 0 0 0 0 0 0 0 0 0 0 0 0 0 0
0 0 0 0 0 0 0 0 0 0 0 0 0 0 0 1 1 1 0 0 0 0 0 0 0 0 0 0 0 0 0 0 0 0 0 0 0 0 0 0 0 0 0
0 0 0 0 0 0 0 0 0 0 0 0 0 0 0 0 0 0 0 0 0 0 0 0 0 0 0 0 0 0 0 0 0 0 0 0 0 0 0 0 0 0 0
0 0 0 0 0 0 0 0 0 0 0 0 0 0 0 0 0 0 0 0 0 0 0 0 0 0 0 0 0 0 0 0 0 0 0 0 0 0 0 0 0 0 0
0 0 0 0 0 0 0 0 0 0 0 0 0 0 0 0 0 0 0 0 0 0 0 0 0 0 0 0 0 0 0 0 0 0 0 0 0 0 0 0 0 0 0
0 0 0 0 0 0 0 0 0 0 0 0 0 0 0 0 0 0 0 0 0 0 0 0 0 0 0 0 0 0 0 0 0 0 0 0 0 0 0 0 0 0 0
0 0 0 0 0 0 0 0 0 0 0 0 0 0 0 0 0 0 0 0 0 0 0 0 0 0 0 0 0 0 0 0 0 0 0 0 0 0 0 0 0 0 0
0 0 0 0 0 0 0 0 0 0 0 0 0 0 0 0 0 0 0 0 0 0 0 0 0 0 0 0 0 0 0 0 0 0 0 0 0 0 0 0 0 0 0
0 0 0 0 0 0 0 0 0 0 0 0 0 0 0 0 0 0 0 0 0 0 0 0 0 0 0 0 0 0 0 0 0 0 0 0 0 0 0 0 0 0 0
0 0 0 0 0 0 0 0 0 0 0 0 0 0 0 0 0 0 0 0 0 0 0 0 0 0 0 0 0 0 0 0 0 0 0 0 0 0 0 0 0 0 0
0 0 0 0 0 0 0 0 0 0 0 0 0 0 0 0 0 0 0 0 0 0 0 0 0 0 0 0 0 0 0 0 0 0 0 0 0 0 0 0 0 0 0
0 0 0 0 0 0 0 0 0 0 0 0 0 0 0 0 0 0 0 0 0 0 0 0 0 0 0 0 0 0 0 0 0 0 0 0 0 0 0 0 0 0 0
0 0 0 0 0 0 0 0 0 0 0 0 0 0 0 0 0 0 0 0 0 0 0 0 0 0 0 0 0 0 0 0 0 0 0 0 0 0 0 0 0 0 0
0 0 0 0 0 0 0 0 0 0 0 0 0 0 0 0 0 0 0 0 0 0 0 0 0 0 0 0 0 0 0 0 0 0 0 0 0 0 0 0 0 0 0
Wind_Speed
6 6 6 6 6 6 5 5 4 4 3 1 1 2 1 1 0 0 1 1 1 2 2 2 3 2 2 3 3 3 4 3 3 3 4 5 6 6 5 4 5 4 4
6 7 7 7 6 6 6 5 5 4 3 2 1 1 1 1 1 0 0 1 1 1 2 2 2 2 2 3 2 3 3 3 2 3 4 4 4 4 4 4 4 4 4
6 6 7 7 6 6 6 5 5 5 4 3 2 1 0 0 0 1 1 1 2 2 2 2 2 2 2 2 2 2 2 3 3 3 3 4 4 4 3 4 4 4 4
6 6 7 7 7 6 6 5 5 4 4 3 2 1 1 1 2 2 1 1 1 2 2 3 2 2 2 3 3 3 3 3 3 3 3 4 4 4 4 3 3 4 5
6 6 6 6 7 7 6 6 5 5 5 3 2 1 1 2 2 2 2 2 2 2 2 3 2 2 2 3 3 3 3 2 3 2 3 3 4 5 5 6 5 4 4
5 6 6 6 6 7 6 6 5 5 5 4 3 2 2 2 3 3 3 2 2 2 3 3 3 3 3 3 3 3 3 3 3 3 2 2 2 3 4 6 7 6 5
5 6 7 7 8 8 7 6 6 6 6 5 4 3 3 3 3 3 3 3 3 3 4 4 3 3 3 3 3 3 3 3 3 3 3 3 3 4 4 6 6 7 5
6 6 7 7 7 7 7 7 6 6 5 5 4 4 3 2 2 3 3 3 3 3 4 4 4 4 4 4 3 2 3 3 3 3 3 3 3 4 4 4 5 7 6
6 6 6 6 7 7 7 6 6 6 6 5 4 4 4 3 3 4 3 3 3 3 4 4 4 4 4 4 4 3 3 3 3 3 4 3 3 3 4 4 4 5 7
5 5 5 6 6 6 6 6 5 5 5 5 5 4 5 4 4 3 4 4 4 4 4 4 4 4 4 4 4 3 3 3 4 3 4 4 4 4 4 4 4 5 6
4 4 5 5 5 5 6 6 6 6 6 6 5 5 4 4 4 4 4 4 4 4 4 4 4 4 4 4 3 3 4 4 4 4 5 5 5 4 4 4 4 5 5
3 4 4 5 5 6 6 6 6 6 6 6 5 5 5 5 4 4 5 5 4 4 4 4 4 4 4 4 3 4 4 4 5 5 5 6 5 6 4 4 5 5 5
3 4 4 5 5 6 6 6 6 6 6 5 5 5 5 5 5 5 5 5 5 4 4 4 4 4 4 4 4 4 4 4 5 5 6 6 6 6 5 6 5 5 5
3 4 4 5 5 5 6 6 6 5 5 5 5 5 6 6 5 5 5 5 5 5 5 5 4 4 4 4 5 5 5 5 5 5 6 6 6 6 6 5 6 5 6
3 3 4 5 5 6 6 6 6 6 5 5 5 6 6 6 6 6 5 5 5 5 5 5 5 4 4 4 5 6 6 5 6 6 6 6 6 7 6 5 6 6 5
3 3 4 5 5 6 6 6 6 6 5 5 5 6 6 6 6 6 6 6 6 6 5 5 5 5 4 6 8 7 6 6 6 6 6 6 5 6 6 7 7 7 7
3 3 4 4 5 5 6 6 6 6 5 5 5 6 6 6 6 6 6 6 6 6 6 6 6 6 6 8 9 8 6 6 6 6 6 5 5 6 6 6 7 7 8
3 3 3 4 4 5 5 5 5 5 5 5 6 6 6 6 6 6 6 6 5 5 5 6 6 6 6 9 9 9 6 5 6 6 6 6 6 6 7 6 6 6 6
3 3 3 4 4 5 5 5 5 5 5 6 6 7 7 6 6 6 6 6 6 6 6 6 6 6 7 9 10 9 5 5 6 6 6 6 7 8 8 6 6 6 6
2 2 2 3 3 4 4 4 4 5 5 6 7 7 7 6 6 6 6 6 5 6 6 5 6 6 7 8 10 9 4 5 5 5 5 6 7 8 8 6 6 7 7
2 2 2 2 3 3 3 3 4 5 6 6 7 6 6 6 6 6 5 6 5 6 5 5 5 6 6 8 10 10 5 5 6 5 5 5 8 8 8 8 6 7 8
2 2 2 3 3 3 3 3 4 5 5 6 6 6 6 5 5 5 5 5 5 5 5 5 6 5 5 6 9 10 9 8 6 6 5 6 9 9 9 7 7 8 7
2 2 2 3 2 2 2 3 4 5 5 5 5 5 6 5 5 5 5 5 4 4 4 4 5 5 5 6 9 10 10 10 7 5 7 9 9 8 6 6 7 5 3
2 2 2 3 3 3 2 3 4 4 4 5 5 5 5 5 4 4 4 4 4 4 4 5 5 6 6 5 5 6 6 7 7 5 6 7 7 6 6 5 4 3 3
2 2 3 4 4 3 3 3 3 3 4 4 4 4 4 4 5 4 4 5 4 5 6 5 5 6 7 8 11 9 7 6 6 6 4 4 4 4 4 4 3 3 3
3 3 3 4 4 3 3 3 3 3 3 4 4 3 4 4 4 4 5 5 6 8 9 9 9 7 9 13 14 13 12 11 10 5 4 4 4 4 4 4 4 3 3
Wind_Direction
24 22 23 23 26 25 22 19 13 3 357 322 224 206 210 208 196 328 346 314 314 305 289 291 292 297 286 290 288 277 276 274 277 280 281 272 260 257 257 261 263 262 266
21 22 22 27 25 22 16 16 13 9 2 346 310 248 222 207 190 156 325 325 317 312 301 297 296 301 295 297 302 305 290 279 262 274 287 280 268 246 258 258 264 272 274
13 16 19 20 19 16 7 4 5 7 5 356 355 354 264 230 269 301 293 300 300 302 303 294 293 297 285 286 288 286 289 290 278 275 270 278 280 304 253 256 260 265 266
18 17 15 15 14 7 1 4 5 7 8 5 8 18 12 315 293 296 297 310 306 311 311 300 293 290 285 288 285 280 279 280 284 285 280 288 297 286 287 269 266 274 272
18 18 15 12 10 7 5 5 10 14 14 13 5 357 347 322 321 321 319 322 323 323 327 314 301 293 286 289 292 288 278 274 277 275 285 286 290 283 283 287 286 279 273
15 15 14 13 12 11 10 9 13 15 11 13 12 7 352 347 353 352 347 337 337 340 348 340 329 317 306 296 292 287 280 276 280 282 284 283 281 283 278 279 289 288 283
12 9 9 9 7 7 7 6 12 13 9 13 18 12 357 345 342 337 332 330 331 337 339 342 341 337 335 328 319 309 308 297 293 286 287 284 282 289 284 280 285 285 287
14 8 5 4 1 2 3 4 6 6 4 8 8 7 5 349 339 338 332 322 322 332 336 336 334 334 336 335 330 316 307 309 298 300 302 300 302 303 298 290 290 289 283
6 3 4 3 0 359 360 360 360 1 359 1 360 359 359 355 349 350 340 335 341 339 342 338 332 335 338 336 330 326 330 330 324 319 312 306 308 305 299 295 288 286 288
358 359 4 0 358 356 356 358 359 358 355 355 356 355 350 349 347 349 346 344 344 345 340 341 337 334 337 340 337 333 337 338 334 324 316 312 310 306 305 300 296 286 283
352 355 355 353 356 358 357 360 0 358 355 353 352 349 345 347 347 347 343 340 337 335 334 331 332 333 333 334 333 331 330 330 325 321 315 311 311 308 309 305 300 295 292
349 351 350 354 356 358 358 357 357 358 353 347 346 347 345 345 346 345 340 337 334 334 333 329 328 327 327 326 322 319 319 316 312 310 307 304 307 307 307 303 298 295 293
351 354 355 355 355 354 354 352 352 351 347 345 346 349 350 348 346 343 339 339 336 335 337 336 331 324 323 321 315 309 310 309 306 305 300 298 301 300 304 301 298 297 295
346 349 350 350 352 350 348 347 348 345 343 346 350 353 350 347 344 342 341 339 335 335 337 334 329 323 321 320 320 316 310 307 306 305 299 297 296 295 299 296 297 298 294
330 337 338 341 345 348 348 348 346 346 346 349 353 352 348 346 345 345 343 341 339 337 333 327 325 323 320 321 324 321 312 307 304 303 303 302 302 301 297 294 297 296 288
303 319 328 333 337 342 343 346 346 346 349 353 350 346 345 344 344 343 341 340 339 336 333 327 323 321 318 323 321 317 310 306 301 302 304 303 297 299 297 299 297 292 286
292 306 314 319 326 334 338 339 337 339 346 347 344 343 341 339 338 336 338 336 332 331 325 325 324 320 323 329 326 323 315 306 303 302 302 302 305 302 303 304 302 299 298
291 302 309 317 327 332 332 331 332 338 341 342 340 338 335 332 330 332 332 330 326 321 319 321 320 319 323 328 329 329 317 309 307 304 300 300 301 304 308 306 305 306 307
285 295 309 318 324 329 329 329 334 339 340 339 336 333 330 326 326 327 325 325 322 318 317 317 319 318 319 325 327 329 317 309 308 305 302 302 302 304 308 305 302 303 307
288 298 312 319 321 326 328 330 333 336 336 332 328 326 324 320 318 317 318 318 315 311 312 313 315 313 313 322 325 325 314 309 309 306 303 301 304 309 310 306 300 299 305
273 289 295 301 309 318 323 322 326 328 327 324 322 322 321 316 311 313 316 315 314 313 313 312 312 311 312 318 325 324 318 311 305 302 303 303 304 305 309 310 303 300 305
263 268 275 290 310 321 317 312 316 323 327 324 321 320 319 317 317 319 318 318 315 313 314 313 313 312 314 318 323 323 318 315 302 298 301 304 305 306 309 310 310 312 314
253 263 269 283 302 319 313 301 313 326 325 321 317 315 318 319 322 320 320 320 320 315 315 315 313 316 320 320 323 320 319 317 309 301 302 306 309 311 309 309 313 315 307
248 254 254 265 280 299 303 298 312 322 317 313 314 316 319 323 327 322 319 318 319 318 317 316 314 314 315 319 323 321 319 320 316 315 314 313 314 315 317 316 315 311 308
248 240 242 254 268 284 291 305 313 314 307 305 307 313 315 319 319 318 312 312 309 313 313 312 309 310 311 319 321 321 317 317 313 317 311 308 312 314 315 315 317 313 311
245 247 251 257 267 274 282 296 305 299 294 299 307 310 312 316 315 316 315 307 307 316 318 318 317 311 310 316 319 318 316 318 321 319 303 301 301 301 304 305 305 303 304